Gabrielle Paige — WDG3289 — position and weather

sailwx.info

Track history (hours):
 
Tides and Currents Weather Stations Pressure Air Temp Water Temp Dewpoint Dewpoint Depression Visibility Wind Speed Wind Dir Waves Ship Positions

Gabrielle Paige

More information available from US FCC via Universal Licensing System and Coast Guard Vessel Documentation Center.

Last reported at 2014-Aug-31 09:33 UTC. Time now 2014-Sep-22 12:18 UTC.
Position N 39°30' W 072°50'.
Warning: this ship's position is 22 days out of date.

Length 26 m.

Type: Fishing. MMSI: 367524510.

Date/timePositionNaut miles runAvg speedWind from/ knotsBaromVisibWave heightAir tempDewpointWater temp
2014-Aug-31 09:33N 39°30' W 072°50'5 4.6
2014-Aug-31 08:30N 39°30' W 072°44'6 4.2
2014-Aug-31 07:04N 39°31' W 072°51'5 0.7
2014-Aug-31 00:08N 39°30' W 072°45'  
2014-Aug-28 12:04N 39°32' W 072°50'3 0.6
2014-Aug-28 07:34N 39°31' W 072°46'1 1.2
2014-Aug-28 06:34N 39°31' W 072°48'2 1.6
2014-Aug-28 05:34N 39°31' W 072°50'1 0.7
2014-Aug-28 04:33N 39°31' W 072°49'2 1.5
2014-Aug-28 03:33N 39°31' W 072°47'0 0.3
2014-Aug-28 02:30N 39°31' W 072°47'2 2.5
2014-Aug-28 01:34N 39°31' W 072°50'1 0.5
2014-Aug-28 00:15N 39°31' W 072°51'3 3.6
2014-Aug-27 23:30N 39°31' W 072°47'1 0.2
2014-Aug-27 20:31N 39°31' W 072°46'2 1.3
2014-Aug-27 19:14N 39°31' W 072°49'4 2.2
2014-Aug-27 17:33N 39°31' W 072°44'2 2.5
2014-Aug-27 16:33N 39°30' W 072°47'1 1.3
2014-Aug-27 15:33N 39°30' W 072°48'4 3.8
2014-Aug-27 14:33N 39°30' W 072°44'5 4.8
2014-Aug-27 13:33N 39°31' W 072°50'2 2.1
2014-Aug-27 12:33N 39°31' W 072°47'2 2.1
2014-Aug-27 11:33N 39°31' W 072°50'0 0.1
2014-Aug-27 10:33N 39°31' W 072°50'1 1.2
2014-Aug-27 09:33N 39°31' W 072°48'1 1.0
2014-Aug-27 08:33N 39°31' W 072°47'1 0.6
2014-Aug-27 07:33N 39°31' W 072°47'1 1.2
2014-Aug-27 06:32N 39°31' W 072°49'1 1.4
2014-Aug-27 05:32N 39°31' W 072°51'2 1.5
2014-Aug-27 04:33N 39°31' W 072°49'1 1.5
2014-Aug-27 03:33N 39°31' W 072°47'0 0.5
2014-Aug-27 02:33N 39°30' W 072°47'2 1.7
2014-Aug-27 01:32N 39°30' W 072°49'2 1.8
2014-Aug-27 00:33N 39°30' W 072°46'1 1.0
2014-Aug-26 23:33N 39°30' W 072°45'2 2.2
2014-Aug-26 22:33N 39°31' W 072°48'1 0.8
2014-Aug-26 21:33N 39°30' W 072°47'5 4.7
2014-Aug-26 20:26N 39°31' W 072°54'1 1.6
2014-Aug-26 19:30N 39°30' W 072°53'1 1.0
2014-Aug-26 18:28N 39°31' W 072°51'0 0.3
2014-Aug-26 17:25N 39°31' W 072°52'4 4.8
2014-Aug-26 16:33N 39°30' W 072°46'4 1.5
2014-Aug-26 14:05N 39°31' W 072°51'0 0.7
2014-Aug-26 13:30N 39°31' W 072°51'4 4.0
2014-Aug-26 12:25N 39°31' W 072°45'1 0.2
2014-Aug-26 05:34N 39°31' W 072°47'0 0.1
2014-Aug-26 04:22N 39°31' W 072°47'0 0.4
2014-Aug-26 03:11N 39°31' W 072°47'2 3.0
2014-Aug-26 02:34N 39°31' W 072°50'2 1.8
2014-Aug-26 01:33N 39°30' W 072°48'1 0.6
2014-Aug-26 00:33N 39°30' W 072°48'  
Track history (hours):
 
Tides and Currents Weather Stations Pressure Air Temp Water Temp Dewpoint Dewpoint Depression Visibility Wind Speed Wind Dir Waves Ship Positions

Gabrielle Paige

More information available from US FCC via Universal Licensing System and Coast Guard Vessel Documentation Center.

Last reported at 2014-Aug-31 09:33 UTC. Time now 2014-Sep-22 12:18 UTC.
Position N 39°30' W 072°50'.
Warning: this ship's position is 22 days out of date.

Length 26 m.

Type: Fishing. MMSI: 367524510.

Date/timePositionNaut miles runAvg speedWind from/ knotsBaromVisibWave heightAir tempDewpointWater temp
2014-Aug-31 09:33N 39°30' W 072°50'5 4.6
2014-Aug-31 08:30N 39°30' W 072°44'6 4.2
2014-Aug-31 07:04N 39°31' W 072°51'5 0.7
2014-Aug-31 00:08N 39°30' W 072°45'  
2014-Aug-28 12:04N 39°32' W 072°50'3 0.6
2014-Aug-28 07:34N 39°31' W 072°46'1 1.2
2014-Aug-28 06:34N 39°31' W 072°48'2 1.6
2014-Aug-28 05:34N 39°31' W 072°50'1 0.7
2014-Aug-28 04:33N 39°31' W 072°49'2 1.5
2014-Aug-28 03:33N 39°31' W 072°47'0 0.3
2014-Aug-28 02:30N 39°31' W 072°47'2 2.5
2014-Aug-28 01:34N 39°31' W 072°50'1 0.5
2014-Aug-28 00:15N 39°31' W 072°51'3 3.6
2014-Aug-27 23:30N 39°31' W 072°47'1 0.2
2014-Aug-27 20:31N 39°31' W 072°46'2 1.3
2014-Aug-27 19:14N 39°31' W 072°49'4 2.2
2014-Aug-27 17:33N 39°31' W 072°44'2 2.5
2014-Aug-27 16:33N 39°30' W 072°47'1 1.3
2014-Aug-27 15:33N 39°30' W 072°48'4 3.8
2014-Aug-27 14:33N 39°30' W 072°44'5 4.8
2014-Aug-27 13:33N 39°31' W 072°50'2 2.1
2014-Aug-27 12:33N 39°31' W 072°47'2 2.1
2014-Aug-27 11:33N 39°31' W 072°50'0 0.1
2014-Aug-27 10:33N 39°31' W 072°50'1 1.2
2014-Aug-27 09:33N 39°31' W 072°48'1 1.0
2014-Aug-27 08:33N 39°31' W 072°47'1 0.6
2014-Aug-27 07:33N 39°31' W 072°47'1 1.2
2014-Aug-27 06:32N 39°31' W 072°49'1 1.4
2014-Aug-27 05:32N 39°31' W 072°51'2 1.5
2014-Aug-27 04:33N 39°31' W 072°49'1 1.5
2014-Aug-27 03:33N 39°31' W 072°47'0 0.5
2014-Aug-27 02:33N 39°30' W 072°47'2 1.7
2014-Aug-27 01:32N 39°30' W 072°49'2 1.8
2014-Aug-27 00:33N 39°30' W 072°46'1 1.0
2014-Aug-26 23:33N 39°30' W 072°45'2 2.2
2014-Aug-26 22:33N 39°31' W 072°48'1 0.8
2014-Aug-26 21:33N 39°30' W 072°47'5 4.7
2014-Aug-26 20:26N 39°31' W 072°54'1 1.6
2014-Aug-26 19:30N 39°30' W 072°53'1 1.0
2014-Aug-26 18:28N 39°31' W 072°51'0 0.3
2014-Aug-26 17:25N 39°31' W 072°52'4 4.8
2014-Aug-26 16:33N 39°30' W 072°46'4 1.5
2014-Aug-26 14:05N 39°31' W 072°51'0 0.7
2014-Aug-26 13:30N 39°31' W 072°51'4 4.0
2014-Aug-26 12:25N 39°31' W 072°45'1 0.2
2014-Aug-26 05:34N 39°31' W 072°47'0 0.1
2014-Aug-26 04:22N 39°31' W 072°47'0 0.4
2014-Aug-26 03:11N 39°31' W 072°47'2 3.0
2014-Aug-26 02:34N 39°31' W 072°50'2 1.8
2014-Aug-26 01:33N 39°30' W 072°48'1 0.6
2014-Aug-26 00:33N 39°30' W 072°48'  

Dump ship's entire track history